TITAN 3C TRANSTAGE DEB, 13906

Orbit data source: Space-Track

TITAN 3C TRANSTAGE DEB, 13906 is space debris in HEO originally from a launch on Tue, 21 Dec 1965 UTC launched from the Air Force Eastern Test Range (AFETR). Debris objects in space refer to the collection of defunct objects orbiting the Earth. Examples of debris include non-operational satellites, rocket bodies, and fragments generated from explosions, collisions, or faulty payload assembly.

Loading next visibility...
Identifier
13906, 1965-108U
Orbit
HEO
Country
Flag of USUS
Related business
Manufacturer
Unknown
Mission
Spacecraft
Bus & Motor
Unknown
Mass
Unknown
Launch date (UTC)
1965-12-21 (60 years ago)
Launch vehicle
Unknown
Launch site
Air Force Eastern Test Range (AFETR)
Object type
Payload
Rocket body
Debris
Shape & HBR
Unknown shape, 0.5 m
Radar Cross Section
Medium (>0.1 m² and <1 m²)

Expand to show TLE details & history
Last TLE update: 2 days ago

TLE from 2 days ago
0 TITAN 3C TRANSTAGE DEB
1 13906U 65108U   25341.09187586  .00000009  00000-0  14544-2 0  9997
2 13906  26.6124 347.2620 6742879  89.3147 355.5413  2.78044249338034
Epoch: 2025-12-07T02:12Z
TLE epoch observation values (Epoch: 2025-12-07T02:12:18.074Z)
Latitude
22.76342°
Longitude
-65.54479°
Altitude
952.07 km
Speed
9.494 km/s
True Right ascension
02h 54m 33s
True Declination
22° 38' 39"
Sunlit
Object was in full shadow at epoch
Visualization orbit readout
Latitude
Unknown
Longitude
Unknown
Altitude
Unknown
Speed
Unknown
Apparent Right ascension
Unknown
Apparent Declination
Unknown
Sunlit
N/A
Visualization observer readout
Local Sidereal Time
02:12:39
Azimuth
Unknown
Elevation
Unknown
Doppler factor
Unknown
Orbital elements
Apogee altitude
29,395.441 km
Perigee altitude
581.172 km
Semi-major axis
21,366.444 km
Eccentricity
0.67429
Inclination
26.6124°
RAAN
347.262°
Arg. of periapsis
89.3147°
True anomaly
330.09721°
Mean anomaly
355.5413°
Eccentric anomaly
346.56509°
Mean motion
0.69494 °/min
Orbital period
518.03 mins
BSTAR
0.0014544
Loading maneuver chart data...
Computing Atmospheric mass density...

Documentation

Showing up to 5 results
|